Weather History for Hof Plauen, Germany

Change the Weather History Date:

Friday, November 15, 2013

  Actual Average Record
Temperature  
Mean Temperature 34 °F -  
Max Temperature 36 °F 38 °F 55 °F (2006)
Min Temperature 31 °F 31 °F 23 °F (2001)
Degree Days  
Heating Degree Days 32    
Moisture  
Dew Point 31 °F    
Average Humidity 88    
Maximum Humidity 94    
Minimum Humidity 77    
Precipitation  
Precipitation 0.00 in - - ()
Sea Level Pressure  
Sea Level Pressure 30.25 in    
Wind  
Wind Speed 5 mph ()    
Max Wind Speed 14 mph    
Max Gust Speed -    
Visibility 2.1 miles    
Events Fog    
Averages and records for this station are not official NWS values.
T = Trace of Precipitation, MM = Missing Value Source: Averaged Metar Reports

Daily Weather History Graph

Daily Weather History Graph

Search for Another Location

Airport:

Trip Planner

Search our weather history database for the weather conditions in past years. The results will help you decide how hot, cold, wet, or windy it might be!

Date:

Astronomy

Nov. 15, 2013 Rise Set
Actual Time 7:26 AM CET 4:27 PM CET
Civil Twilight 6:50 AM CET 5:03 PM CET
Nautical Twilight 6:10 AM CET 5:42 PM CET
Astronomical Twilight 5:32 AM CET 6:21 PM CET
Moon 3:24 PM CET (11/15) 4:53 AM CET (11/15)
Length of Visible Light 10h 12m
Length of Day
9h 01m
Waxing Gibbous, 95% of the Moon is Illuminated
Nov 15
Waxing Gibbous
Nov 17
Full
Nov 25
Last Quarter
Dec 3
New
Dec 9
First Quarter

Hourly Weather History & Observations

Time (CET) Temp. Windchill Dew Point Humidity Pressure Visibility Wind Dir Wind Speed Gust Speed Precip Events Conditions
12:00 AM 31 °F - 30 °F 93% 30.18 in 2 mi West 2.2 mph - -   Mist
12:20 AM 32.0 °F - 28.4 °F 87% 30.09 in 1.9 mi Variable 2.3 mph - N/A   Overcast
12:50 AM 32.0 °F - 28.4 °F 87% 30.12 in 1.7 mi Calm Calm - N/A   Overcast
1:00 AM 32 °F - 30 °F 89% 30.19 in 2 mi South 2.2 mph - -   Mist
1:20 AM 32.0 °F - 28.4 °F 87% 30.12 in 1.7 mi Calm Calm - N/A   Overcast
1:50 AM 32.0 °F - 28.4 °F 87% 30.12 in 1.7 mi East 1.2 mph - N/A   Overcast
2:00 AM 32 °F - 30 °F 90% 30.19 in 3 mi SE 2.2 mph - -   Mist
2:20 AM 32.0 °F - 30.2 °F 93% 30.12 in - Calm Calm - N/A   Mostly Cloudy
2:50 AM 32.0 °F - 28.4 °F 87% 30.12 in 1.7 mi Calm Calm - N/A   Mostly Cloudy
3:00 AM 32 °F - 30 °F 91% 30.21 in 2 mi SE 2.2 mph - -   Mist
3:20 AM 32.0 °F - 30.2 °F 93% 30.12 in 1.9 mi NNE 2.3 mph - N/A   Overcast
3:50 AM 32.0 °F 28.7 °F 30.2 °F 93% 30.12 in 2.2 mi NNE 3.5 mph - N/A   Overcast
4:20 AM 32.0 °F 26.4 °F 30.2 °F 93% 30.12 in - NNE 5.8 mph - N/A   Overcast
4:50 AM 32.0 °F 25.6 °F 30.2 °F 93% 30.15 in - NNE 6.9 mph - N/A   Mostly Cloudy
5:00 AM 32 °F - 31 °F 94% 30.22 in 2 mi NE 4.5 mph - -   Mist
5:20 AM 32.0 °F 27.5 °F 30.2 °F 93% 30.15 in 1.9 mi NE 4.6 mph - N/A   Overcast
5:50 AM 32.0 °F 27.5 °F 30.2 °F 93% 30.15 in - NE 4.6 mph - N/A   Overcast
6:00 AM 33 °F - 31 °F 90% 30.23 in 3 mi ENE 4.5 mph - -   Mist
6:20 AM 32.0 °F 26.4 °F 30.2 °F 93% 30.15 in 2.2 mi NE 5.8 mph - N/A   Overcast
6:50 AM 32.0 °F 27.5 °F 30.2 °F 93% 30.18 in - NNE 4.6 mph - N/A   Overcast
7:00 AM 33 °F - 31 °F 90% 30.26 in 2 mi NE 4.5 mph - -   Mist
7:20 AM 32.0 °F 25.6 °F 30.2 °F 93% 30.18 in 1.8 mi NNE 6.9 mph - N/A   Overcast
7:50 AM 32.0 °F 26.4 °F 30.2 °F 93% 30.21 in 1.9 mi North 5.8 mph - N/A   Overcast
8:00 AM 33 °F - 31 °F 91% 30.29 in 2 mi NNE 4.5 mph - -   Mist
8:20 AM 32.0 °F 25.6 °F 30.2 °F 93% 30.21 in 1.8 mi NNE 6.9 mph - N/A   Mostly Cloudy
8:50 AM 33.8 °F 26.4 °F 30.2 °F 87% 30.24 in 1.7 mi NNE 9.2 mph - N/A   Overcast
9:00 AM 33 °F - 31 °F 91% 30.30 in 2 mi NNE 6.7 mph - -   Mist
9:20 AM 33.8 °F 27.0 °F 30.2 °F 87% 30.21 in 1.6 mi NNE 8.1 mph - N/A   Overcast
9:50 AM 33.8 °F 26.4 °F 30.2 °F 87% 30.24 in 1.7 mi NNE 9.2 mph - N/A   Overcast
10:20 AM 33.8 °F 27.0 °F 30.2 °F 87% 30.24 in - NNE 8.1 mph - N/A   Mostly Cloudy
10:50 AM 33.8 °F 27.0 °F 30.2 °F 87% 30.24 in - ENE 8.1 mph - N/A   Mostly Cloudy
11:00 AM 34 °F - 31 °F 86% 30.32 in 3 mi ENE 6.7 mph - -   Mist
11:20 AM 33.8 °F 28.6 °F 30.2 °F 87% 30.24 in - NE 5.8 mph - N/A   Mostly Cloudy
11:50 AM 35.6 °F 29.9 °F 30.2 °F 81% 30.27 in - NE 6.9 mph - N/A   Mostly Cloudy
12:00 PM 35 °F - 32 °F 84% 30.33 in 3 mi NE 6.7 mph - -   Mist
12:20 PM 35.6 °F 29.2 °F 30.2 °F 81% 30.27 in - NNE 8.1 mph - N/A   Mostly Cloudy
12:50 PM 35.6 °F 28.6 °F 30.2 °F 81% 30.27 in - NNE 9.2 mph - N/A   Mostly Cloudy
1:00 PM 35 °F - 32 °F 83% 30.33 in 3 mi NNE 6.7 mph - -   Mist
1:20 PM 35.6 °F 29.9 °F 30.2 °F 81% 30.27 in 3.1 mi North 6.9 mph - N/A   Mostly Cloudy
1:50 PM 35.6 °F 28.0 °F 30.2 °F 81% 30.27 in 3.1 mi NNE 10.4 mph - N/A   Mostly Cloudy
2:00 PM 36 °F - 31 °F 77% 30.34 in 3 mi NE 6.7 mph - -   Mist
2:20 PM 35.6 °F 28.6 °F 30.2 °F 81% 30.27 in 3.1 mi NNE 9.2 mph - N/A   Mostly Cloudy
2:50 PM 35.6 °F 28.6 °F 30.2 °F 81% 30.30 in 3.1 mi NNE 9.2 mph - N/A   Overcast
3:00 PM 36 °F - 32 °F 78% 30.35 in 2 mi NE 8.9 mph - -   Mist
3:20 PM 35.6 °F 28.6 °F 30.2 °F 81% 30.30 in 2.8 mi NNE 9.2 mph - N/A   Overcast
3:50 PM 35.6 °F 28.0 °F 30.2 °F 81% 30.30 in 2.5 mi NNE 10.4 mph - N/A   Overcast
4:20 PM 35.6 °F 28.0 °F 32.0 °F 87% 30.30 in 2.5 mi NNE 10.4 mph - N/A   Overcast
4:50 PM 35.6 °F 28.0 °F 32.0 °F 87% 30.33 in - NNE 10.4 mph - N/A   Overcast
5:00 PM 35 °F - 33 °F 87% 30.39 in 2 mi ENE 6.7 mph - -   Mist
5:20 PM 35.6 °F 27.1 °F 32.0 °F 87% 30.33 in 1.9 mi NNE 12.7 mph - N/A   Overcast
5:50 PM 35.6 °F 26.6 °F 32.0 °F 87% 30.36 in 1.7 mi NNE 13.8 mph - N/A   Overcast
6:00 PM 35 °F - 33 °F 91% 30.42 in 1 mi NE 6.7 mph - -   Mist
6:20 PM 35.6 °F 28.0 °F 32.0 °F 87% 30.36 in 1.3 mi NNE 10.4 mph - N/A   Overcast
7:00 PM 35 °F - 34 °F 92% 30.42 in 0 mi ENE 8.9 mph - - Fog Heavy Fog
8:00 PM 35 °F - 34 °F 93% 30.41 in 0 mi ENE 4.5 mph - - Fog Heavy Fog
9:00 PM 35 °F - 34 °F 93% 30.43 in 0 mi NE 6.7 mph - - Fog Heavy Fog
11:00 PM 35 °F - 33 °F 87% 30.43 in 4 mi SE 11.2 mph - -   Mist